Regional Weather Roundup
Issued by NWS

Home | Current Version | Previous Version | Text Only | Print | Product List | Glossary On
Versions: 1 2 3 4 5 6 7 8 9 10 11 12 13 14 15 16 17 18 19 20 21 22 23 24 25 26 27 28 29 30 31 32 33 34 35 36 37 38 39 40 41 42 43 44 45 46 47 48 49 50
000
ASUS45 KREV 281310
RWRNV
NEVADA REGIONAL WEATHER ROUNDUP
NATIONAL WEATHER SERVICE RENO NV
500 AM PST WED JAN 28 2015

NOTE: "FAIR" INDICATES FEW OR NO CLOUDS BELOW 12,000 FEET WITH NO
SIGNIFICANT WEATHER AND/OR OBSTRUCTIONS TO VISIBILITY.

NVZ001-003-004-281400-
WESTERN NEVADA

CITY           SKY/WX    TMP DP  RH WIND       PRES   REMARKS
RENO           CLEAR     31  27  85 CALM      30.33R
CARSON CITY    FAIR      32  28  86 NW3       30.32S
SLIDE MTN        N/A     27  14  59 N22         N/A
PYRAMID LAKE     N/A     41 N/A N/A W6          N/A
FALLON         PTCLDY    34  32  92 CALM      30.30R
LOVELOCK       FOG       30  32 100 SW3       30.30R VSB 1/4
HAWTHORNE      CLEAR     34  32  93 CALM      30.32R
$$

NVZ002-CAZ072-073-281400-
NORTHERN AND CENTRAL SIERRA

CITY           SKY/WX    TMP DP  RH WIND       PRES   REMARKS
S. LAKE TAHOE  CLEAR     28  23  81 CALM      30.31S
TRUCKEE        FOG       23  23 100 CALM      30.34R VSB 3/4
SQUAW VLY 8000   N/A     30  25  80 CALM        N/A
BLUE CANYON    CLEAR     45  19  35 VRB3      30.29S
MAMMOTH LAKES  FAIR      25  23  93 CALM      30.33R
BRIDGEPORT     FAIR      20  15  81 CALM      30.31R
$$

NVZ030-031-036-281400-
NORTHERN NEVADA

CITY           SKY/WX    TMP DP  RH WIND       PRES   REMARKS
ELKO           CLOUDY    38  34  85 SW3       30.27S
WINNEMUCCA     MOCLDY    33  32  96 CALM      30.30R
WENDOVER       CLOUDY    34  30  86 NE3       30.23R
$$

NVZ035-037-281400-
CENTRAL NEVADA

CITY           SKY/WX    TMP DP  RH WIND       PRES   REMARKS
ELY            MOCLDY    34  32  92 W6        30.27S
EUREKA           N/A     36  32  85 SE6       30.28S
$$

NVZ013-014-281400-
SOUTH CENTRAL NEVADA

CITY           SKY/WX    TMP DP  RH WIND       PRES   REMARKS
TONOPAH        CLEAR     31  28  89 NW3       30.31R
$$

NVZ017-020-022-281400-
SOUTHERN NEVADA

CITY           SKY/WX    TMP DP  RH WIND       PRES   REMARKS
LAS VEGAS      MOCLDY    50  44  80 SW7       30.20F
N. LAS VEGAS   MOCLDY    49  40  71 CALM      30.23F
NELLIS AFB     MOCLDY    46  46  99 CALM      30.24S
HENDERSON      PTCLDY    46  44  93 S9        30.25F
MERCURY        MOCLDY    41  39  93 CALM      30.26R
$$


USA.gov is the U.S. government's official web portal to all federal, state and local government web resources and services.